When you browse on this site, cookies collect data to enhance your experience and personalize the content and advertising you see.
Visit our Privacy Policy to learn more. By continuing to use the site, you agree to this use of cookies and data.
  • In Hungary
  • List of Countries
  • For 7 days
  • Water Temperature
  • Weather Map
  • News
  • Weather Widgets
  • user-avatar
    Login

    Hourly Weather Shurguyal

    Today, 17 September, Tuesday

    Time Temperature Precipitation Wind Pressure Humidity
    00:00 +7°C° 0 mm 6 mps 727 mmHg 95%
    01:00 +7°C° 0 mm 5 mps 727 mmHg 95%
    02:00 +6°C° 0 mm 5 mps 728 mmHg 95%
    03:00 +6°C° 0 mm 5 mps 728 mmHg 96%
    04:00 +6°C° 0 mm 5 mps 728 mmHg 96%
    05:00 +6°C° 0 mm 5 mps 728 mmHg 95%
    06:00 +6°C° 0 mm 5 mps 728 mmHg 95%
    07:00 +5°C° 0 mm 6 mps 728 mmHg 94%
    08:00 +7°C° 0 mm 6 mps 728 mmHg 92%
    09:00 +8°C° 0 mm 6 mps 728 mmHg 90%
    10:00 +8°C° 0 mm 6 mps 728 mmHg 89%
    11:00 +8°C° 0 mm 6 mps 728 mmHg 89%
    12:00 +8°C° 0 mm 6 mps 728 mmHg 88%
    13:00 +9°C° 0.1 mm 7 mps 728 mmHg 83%
    14:00 +10°C° 0.1 mm 7 mps 728 mmHg 78%
    15:00 +11°C° 0.1 mm 7 mps 728 mmHg 73%
    16:00 +10°C° 0 mm 6 mps 728 mmHg 77%
    17:00 +9°C° 0 mm 6 mps 727 mmHg 81%
    18:00 +8°C° 0 mm 5 mps 727 mmHg 84%
    19:00 +7°C° 0 mm 5 mps 727 mmHg 85%
    20:00 +7°C° 0 mm 5 mps 727 mmHg 86%
    21:00 +7°C° 0 mm 5 mps 727 mmHg 87%
    22:00 +6°C° 0 mm 5 mps 727 mmHg 90%
    23:00 +6°C° 0 mm 5 mps 727 mmHg 92%

    Tomorrow, 18 September, Wednesday

    Time Temperature Precipitation Wind Pressure Humidity
    00:00 +5°C° 0 mm 5 mps 727 mmHg 94%
    01:00 +5°C° 0 mm 5 mps 728 mmHg 94%
    02:00 +5°C° 0 mm 5 mps 728 mmHg 95%
    03:00 +5°C° 0 mm 5 mps 728 mmHg 96%
    04:00 +5°C° 0 mm 5 mps 728 mmHg 95%
    05:00 +5°C° 0 mm 5 mps 729 mmHg 95%
    06:00 +5°C° 0 mm 5 mps 729 mmHg 94%
    07:00 +5°C° 0 mm 5 mps 729 mmHg 93%
    08:00 +6°C° 0 mm 5 mps 729 mmHg 92%
    09:00 +6°C° 0 mm 5 mps 730 mmHg 90%
    10:00 +6°C° 0 mm 5 mps 730 mmHg 88%
    11:00 +7°C° 0 mm 4 mps 730 mmHg 85%
    12:00 +7°C° 0 mm 4 mps 730 mmHg 82%
    13:00 +8°C° 0.1 mm 4 mps 730 mmHg 81%
    14:00 +8°C° 0.1 mm 4 mps 730 mmHg 80%
    15:00 +8°C° 0.1 mm 4 mps 730 mmHg 79%
    16:00 +8°C° 0 mm 3 mps 730 mmHg 83%
    17:00 +8°C° 0 mm 2 mps 730 mmHg 86%
    18:00 +8°C° 0 mm 1 mps 730 mmHg 89%
    19:00 +8°C° 0 mm 1 mps 730 mmHg 89%
    20:00 +7°C° 0 mm 1 mps 730 mmHg 89%
    21:00 +7°C° 0 mm 1 mps 729 mmHg 89%
    22:00 +7°C° 0 mm 1 mps 729 mmHg 90%
    23:00 +7°C° 0 mm 1 mps 729 mmHg 91%

    Day after tomorrow, 19 September, Thursday

    Time Temperature Precipitation Wind Pressure Humidity
    00:00 +6°C° 0 mm 1 mps 729 mmHg 92%
    01:00 +5°C° 0 mm 2 mps 728 mmHg 93%
    02:00 +5°C° 0 mm 2 mps 727 mmHg 94%
    03:00 +3°C° 0 mm 3 mps 727 mmHg 95%
    04:00 +3°C° 0 mm 3 mps 726 mmHg 95%
    05:00 +3°C° 0 mm 3 mps 726 mmHg 96%
    06:00 +3°C° 0 mm 3 mps 725 mmHg 96%
    07:00 +4°C° 0 mm 4 mps 726 mmHg 90%
    08:00 +5°C° 0 mm 4 mps 726 mmHg 85%
    09:00 +7°C° 0 mm 5 mps 727 mmHg 79%
    10:00 +7°C° 0.2 mm 5 mps 728 mmHg 79%
    11:00 +7°C° 0.2 mm 6 mps 729 mmHg 78%
    12:00 +8°C° 0.2 mm 6 mps 729 mmHg 78%
    13:00 +8°C° 0.2 mm 6 mps 730 mmHg 78%
    14:00 +7°C° 0.2 mm 6 mps 731 mmHg 77%
    15:00 +7°C° 0.2 mm 6 mps 732 mmHg 77%
    16:00 +6°C° 0 mm 5 mps 733 mmHg 79%
    17:00 +5°C° 0 mm 5 mps 734 mmHg 82%
    18:00 +4°C° 0 mm 4 mps 735 mmHg 85%
    19:00 +4°C° 0 mm 4 mps 735 mmHg 86%
    20:00 +3°C° 0 mm 3 mps 736 mmHg 87%
    21:00 +3°C° 0 mm 3 mps 736 mmHg 89%
    22:00 +2°C° 0 mm 3 mps 737 mmHg 89%
    23:00 +2°C° 0 mm 3 mps 737 mmHg 90%

    20 September, Friday

    Time Temperature Precipitation Wind Pressure Humidity
    00:00 +2°C° 0 mm 2 mps 738 mmHg 91%
    01:00 +1°C° 0 mm 2 mps 738 mmHg 91%
    02:00 +1°C° 0 mm 2 mps 738 mmHg 91%
    03:00 +1°C° 0 mm 2 mps 738 mmHg 91%
    04:00 -1°C° 0 mm 2 mps 739 mmHg 91%
    05:00 -1°C° 0 mm 2 mps 739 mmHg 91%
    06:00 -1°C° 0 mm 2 mps 739 mmHg 92%
    07:00 +2°C° 0 mm 2 mps 739 mmHg 84%
    08:00 +4°C° 0 mm 2 mps 740 mmHg 77%
    09:00 +5°C° 0 mm 2 mps 740 mmHg 70%
    10:00 +6°C° 0 mm 2 mps 740 mmHg 65%
    11:00 +7°C° 0 mm 2 mps 740 mmHg 60%
    12:00 +8°C° 0 mm 2 mps 740 mmHg 55%
    13:00 +8°C° 0 mm 2 mps 740 mmHg 55%
    14:00 +8°C° 0 mm 2 mps 740 mmHg 55%
    15:00 +8°C° 0 mm 2 mps 740 mmHg 56%
    16:00 +8°C° 0 mm 1 mps 740 mmHg 60%
    17:00 +7°C° 0 mm 1 mps 740 mmHg 65%
    18:00 +6°C° 0 mm 1 mps 740 mmHg 70%
    19:00 +6°C° 0 mm 1 mps 740 mmHg 71%
    20:00 +6°C° 0 mm 1 mps 740 mmHg 72%
    21:00 +6°C° 0 mm 1 mps 740 mmHg 73%
    22:00 +6°C° 0 mm 1 mps 740 mmHg 75%
    23:00 +6°C° 0 mm 1 mps 740 mmHg 78%

    21 September, Saturday

    Time Temperature Precipitation Wind Pressure Humidity
    00:00 +5°C° 0 mm 2 mps 740 mmHg 80%
    01:00 +4°C° 0.2 mm 2 mps 740 mmHg 84%
    02:00 +4°C° 0.2 mm 2 mps 740 mmHg 89%
    03:00 +5°C° 0.2 mm 1 mps 740 mmHg 93%
    04:00 +5°C° 0.2 mm 1 mps 740 mmHg 93%
    05:00 +5°C° 0.2 mm 1 mps 740 mmHg 93%
    06:00 +4°C° 0.2 mm 1 mps 740 mmHg 93%
    07:00 +4°C° 0 mm 2 mps 740 mmHg 89%
    08:00 +5°C° 0 mm 2 mps 740 mmHg 85%
    09:00 +5°C° 0 mm 2 mps 740 mmHg 81%
    10:00 +5°C° 0.1 mm 3 mps 740 mmHg 78%
    11:00 +5°C° 0.1 mm 3 mps 740 mmHg 75%
    12:00 +7°C° 0.1 mm 3 mps 740 mmHg 72%
    13:00 +6°C° 0.2 mm 4 mps 740 mmHg 71%
    14:00 +6°C° 0.2 mm 4 mps 740 mmHg 70%
    15:00 +6°C° 0.2 mm 4 mps 740 mmHg 69%
    16:00 +5°C° 0.1 mm 4 mps 740 mmHg 73%
    17:00 +4°C° 0.1 mm 3 mps 740 mmHg 76%
    18:00 +3°C° 0.1 mm 3 mps 740 mmHg 79%
    19:00 +3°C° 0 mm 3 mps 740 mmHg 80%
    20:00 +2°C° 0 mm 3 mps 741 mmHg 81%
    21:00 +1°C° 0 mm 3 mps 741 mmHg 82%
    22:00 0°C° 0 mm 3 mps 741 mmHg 85%
    23:00 0°C° 0 mm 3 mps 741 mmHg 87%

    22 September, Sunday

    Time Temperature Precipitation Wind Pressure Humidity
    00:00 -1°C° 0 mm 3 mps 741 mmHg 90%
    01:00 -1°C° 0 mm 3 mps 741 mmHg 92%
    02:00 -1°C° 0 mm 3 mps 742 mmHg 93%
    03:00 -2°C° 0 mm 3 mps 742 mmHg 95%
    04:00 -2°C° 0 mm 3 mps 742 mmHg 95%
    05:00 -2°C° 0 mm 3 mps 742 mmHg 95%
    06:00 -4°C° 0 mm 3 mps 743 mmHg 95%
    07:00 -1°C° 0 mm 3 mps 743 mmHg 88%
    08:00 0°C° 0 mm 3 mps 743 mmHg 81%
    09:00 +2°C° 0 mm 3 mps 744 mmHg 75%
    10:00 +3°C° 0 mm 3 mps 744 mmHg 70%
    11:00 +4°C° 0 mm 3 mps 744 mmHg 66%
    12:00 +5°C° 0 mm 3 mps 744 mmHg 62%
    13:00 +5°C° 0 mm 3 mps 744 mmHg 62%
    14:00 +5°C° 0 mm 3 mps 743 mmHg 61%
    15:00 +5°C° 0 mm 3 mps 743 mmHg 61%
    16:00 +5°C° 0 mm 2 mps 743 mmHg 66%
    17:00 +4°C° 0 mm 1 mps 743 mmHg 71%
    18:00 +3°C° 0 mm 1 mps 743 mmHg 76%
    19:00 +3°C° 0 mm 1 mps 743 mmHg 77%
    20:00 +2°C° 0 mm 2 mps 743 mmHg 77%
    21:00 +2°C° 0 mm 2 mps 743 mmHg 78%
    22:00 +1°C° 0 mm 3 mps 742 mmHg 78%
    23:00 +1°C° 0 mm 3 mps 742 mmHg 77%
    Show more